This is the latest recevied weather packets stored in our database for station/object WX7FGZ-3. If no packets are shown the sender has not sent any weather packets the latest 10 day(s).
| Time | Temp. | Humidity | Pressure | Rain* | Wind** | Luminosity | Snow |
|---|---|---|---|---|---|---|---|
| 1777921171 | 16.67° C | 32% | 1006.9 hPa | 0 mm | - | - | - |
| 1777920270 | 15.56° C | 32% | 1007 hPa | 0 mm | - | - | - |
| 1777919670 | 15.56° C | 32% | 1007 hPa | 0 mm | - | - | - |
| 1777919369 | 15.56° C | 35% | 1007.2 hPa | 0 mm | - | - | - |
| 1777919069 | 15.56° C | 32% | 1007.1 hPa | 0 mm | - | - | - |
| 1777918469 | 15.56° C | 36% | 1007 hPa | 0 mm | - | - | - |
| 1777917568 | 15° C | 37% | 1007.7 hPa | 0 mm | - | - | - |
| 1777917267 | 14.44° C | 37% | 1007.5 hPa | 0 mm | - | - | - |
| 1777916667 | 14.44° C | 38% | 1007.5 hPa | 0 mm | - | - | - |
| 1777916367 | 14.44° C | 38% | 1007.4 hPa | 0 mm | - | - | - |
| 1777916066 | 14.44° C | 39% | 1007.5 hPa | 0 mm | - | - | - |
| 1777915766 | 14.44° C | 40% | 1007.4 hPa | 0 mm | - | - | - |
| 1777915466 | 13.89° C | 40% | 1007.7 hPa | 0 mm | - | - | - |
| 1777915167 | 13.89° C | 39% | 1007.8 hPa | 0 mm | - | - | - |
| 1777914865 | 13.89° C | 40% | 1007.8 hPa | 0 mm | - | - | - |
| 1777914565 | 13.33° C | 40% | 1007.8 hPa | 0 mm | - | - | - |
| 1777914264 | 13.33° C | 40% | 1007.7 hPa | 0 mm | - | - | - |
| 1777913965 | 13.33° C | 41% | 1007.9 hPa | 0 mm | - | - | - |
| 1777913063 | 12.78° C | 43% | 1007.7 hPa | 0 mm | - | - | - |
| 1777912763 | 12.78° C | 43% | 1007.4 hPa | 0 mm | - | - | - |
| 1777910961 | 12.22° C | 47% | 1007.7 hPa | 0 mm | - | - | - |
| 1777909161 | 11.67° C | 47% | 1007.6 hPa | 0 mm | - | - | - |
| 1777908859 | 11.11° C | 47% | 1007.8 hPa | 0 mm | - | - | - |
| 1777908259 | 11.11° C | 47% | 1007.6 hPa | 0 mm | - | - | - |
| 1777907959 | 11.11° C | 48% | 1007.7 hPa | 0 mm | - | - | - |
* Rain latest hour (hover to see other rain measurements)
** Current wind speed in m/s (hover to see current wind gust speed)